K5WFR Weather Reports


time (UTC)temp
C
wind
direction
speed
KPH
gust
KPH
rain 1hr
cm
rain 24hr
cm
rain mn
cm
humidity
%
barometer
mb
20260906231017 36 44 8.0 14.5 0.00 0.00 0.00 40 1011.5
20260906230513 36 91 4.8 12.9 0.00 0.00 0.00 40 1011.5
20260906230023 37 130 3.2 11.3 0.00 0.00 0.00 40 1011.5
20260906225513 37 38 3.2 14.5 0.00 0.00 0.00 39 1011.5
20260906225004 37 119 3.2 14.5 0.00 0.00 0.00 39 1011.5
20260906224504 37 86 3.2 12.9 0.00 0.00 0.00 38 1011.5
20260906224007 37 37 6.4 12.9 0.00 0.00 0.00 39 1011.6
20260906223503 37 156 3.2 14.5 0.00 0.00 0.00 40 1011.6
20260906223007 37 86 4.8 14.5 0.00 0.00 0.00 39 1011.6
20260906222506 37 242 4.8 11.3 0.00 0.00 0.00 38 1011.6
20260906222009 37 123 1.6 11.3 0.00 0.00 0.00 38 1011.7
20260906221514 37 122 3.2 12.9 0.00 0.00 0.00 38 1011.7
20260906221008 37 137 3.2 12.9 0.00 0.00 0.00 39 1011.7
20260906220509 37 154 6.4 12.9 0.00 0.00 0.00 40 1011.6
20260906220025 37 102 6.4 11.3 0.00 0.00 0.00 40 1011.6
20260906215511 37 123 3.2 9.7 0.00 0.00 0.00 41 1011.6
20260906215011 37 87 1.6 6.4 0.00 0.00 0.00 41 1011.6
20260906214536 37 133 1.6 11.3 0.00 0.00 0.00 40 1011.6
20260906214003 37 51 1.6 16.1 0.00 0.00 0.00 40 1011.7
20260906213503 37 146 4.8 16.1 0.00 0.00 0.00 40 1011.8
20260906213013 37 118 4.8 17.7 0.00 0.00 0.00 39 1011.8
20260906212502 37 105 6.4 17.7 0.00 0.00 0.00 39 1011.9
20260906212006 37 137 4.8 11.3 0.00 0.00 0.00 39 1011.9
20260906211517 37 140 3.2 9.7 0.00 0.00 0.00 40 1011.9
20260906211011 37 244 3.2 14.5 0.00 0.00 0.00 40 1012.0
20260906210508 37 153 1.6 14.5 0.00 0.00 0.00 41 1012.2
20260906210020 37 110 3.2 12.9 0.00 0.00 0.00 42 1012.3
20260906205508 37 83 3.2 8.0 0.00 0.00 0.00 40 1012.3
20260906205010 37 277 3.2 14.5 0.00 0.00 0.00 41 1012.4
20260906204529 37 85 3.2 14.5 0.00 0.00 0.00 40 1012.5
20260906204010 37 150 4.8 12.9 0.00 0.00 0.00 41 1012.6
20260906203512 37 132 4.8 12.9 0.00 0.00 0.00 40 1012.6
20260906203032 37 179 4.8 8.0 0.00 0.00 0.00 42 1012.6
20260906202503 36 129 3.2 8.0 0.00 0.00 0.00 42 1012.7
20260906202004 36 136 3.2 6.4 0.00 0.00 0.00 44 1012.8
20260906201510 35 117 1.6 9.7 0.00 0.00 0.00 44 1012.9
20260906201004 35 139 4.8 14.5 0.00 0.00 0.00 43 1013.0
20260906200507 35 93 4.8 14.5 0.00 0.00 0.00 44 1012.9
20260906200025 35 155 4.8 11.3 0.00 0.00 0.00 44 1013.1
20260906195508 35 30 1.6 14.5 0.00 0.00 0.00 44 1013.1
20260906195008 36 137 3.2 14.5 0.00 0.00 0.00 44 1013.2
20260906194519 35 57 4.8 12.9 0.00 0.00 0.00 45 1013.3
20260906194012 35 58 4.8 22.5 0.00 0.00 0.00 44 1013.2
20260906193513 36 145 6.4 22.5 0.00 0.00 0.00 44 1013.3
20260906193025 35 128 6.4 12.9 0.00 0.00 0.00 45 1013.3
20260906192514 35 34 3.2 17.7 0.00 0.00 0.00 44 1013.4
20260906192016 36 25 4.8 17.7 0.00 0.00 0.00 44 1013.4
20260906191509 36 144 6.4 17.7 0.00 0.00 0.00 45 1013.5
20260906191003 35 207 4.8 11.3 0.00 0.00 0.00 45 1013.6
20260906190506 35 27 1.6 11.3 0.00 0.00 0.00 46 1013.7
20260906190015 35 137 4.8 16.1 0.00 0.00 0.00 47 1013.7
20260906185507 35 30 1.6 16.1 0.00 0.00 0.00 45 1013.7
20260906185007 35 42 6.4 12.9 0.00 0.00 0.00 46 1013.8
20260906184520 35 128 3.2 14.5 0.00 0.00 0.00 46 1013.9
20260906184010 35 186 6.4 14.5 0.00 0.00 0.00 47 1013.9
20260906183513 35 148 3.2 14.5 0.00 0.00 0.00 47 1014.0
20260906183027 35 148 1.6 14.5 0.00 0.00 0.00 50 1013.9
20260906182516 35 117 1.6 11.3 0.00 0.00 0.00 49 1014.0
20260906182014 35 214 1.6 11.3 0.00 0.00 0.00 48 1014.1
20260906181545 35 46 3.2 11.3 0.00 0.00 0.00 48 1014.2
20260906181016 35 168 4.8 17.7 0.00 0.00 0.00 49 1014.3
20260906180504 35 138 1.6 17.7 0.00 0.00 0.00 48 1014.3
20260906180019 35 162 8.0 14.5 0.00 0.00 0.00 49 1014.3
20260906175504 35 242 3.2 12.9 0.00 0.00 0.00 48 1014.4
20260906175010 35 149 3.2 12.9 0.00 0.00 0.00 48 1014.5
20260906174515 35 159 1.6 12.9 0.00 0.00 0.00 48 1014.5
20260906174007 35 132 3.2 12.9 0.00 0.00 0.00 51 1014.6
20260906173510 35 90 3.2 9.7 0.00 0.00 0.00 48 1014.7
20260906173034 35 158 1.6 9.7 0.00 0.00 0.00 49 1014.8
20260906172513 34 124 3.2 11.3 0.00 0.00 0.00 49 1014.9
20260906172014 34 348 3.2 11.3 0.00 0.00 0.00 49 1015.0
20260906171528 34 105 1.6 9.7 0.00 0.00 0.00 50 1015.1
20260906171015 34 20 1.6 9.7 0.00 0.00 0.00 50 1015.0
20260906170521 34 216 1.6 9.7 0.00 0.00 0.00 51 1015.1
20260906170032 34 113 3.2 9.7 0.00 0.00 0.00 50 1015.0
20260906165504 33 140 3.2 9.7 0.00 0.00 0.00 50 1015.1
20260906165003 33 132 1.6 12.9 0.00 0.00 0.00 50 1015.2
20260906164513 33 126 3.2 12.9 0.00 0.00 0.00 52 1015.1
20260906164006 33 94 1.6 11.3 0.00 0.00 0.00 54 1015.2
20260906163507 33 119 3.2 11.3 0.00 0.00 0.00 54 1015.2
20260906163018 33 56 3.2 9.7 0.00 0.00 0.00 55 1015.2
20260906162510 33 77 0.0 14.5 0.00 0.00 0.00 55 1015.2
20260906162010 33 103 3.2 14.5 0.00 0.00 0.00 56 1015.2
20260906161524 33 68 4.8 9.7 0.00 0.00 0.00 55 1015.1
20260906161013 33 117 3.2 8.0 0.00 0.00 0.00 56 1015.1
20260906160514 32 134 3.2 11.3 0.00 0.00 0.00 56 1015.1
20260906160030 32 5 0.0 11.3 0.00 0.00 0.00 58 1015.1
20260906155515 32 88 1.6 12.9 0.00 0.00 0.00 59 1015.1
20260906155014 32 92 4.8 12.9 0.00 0.00 0.00 60 1015.1
20260906154541 32 74 1.6 11.3 0.00 0.00 0.00 61 1015.1
20260906154006 32 89 4.8 11.3 0.00 0.00 0.00 61 1015.1
20260906153506 32 125 1.6 9.7 0.00 0.00 0.00 61 1015.1
20260906153021 32 105 3.2 8.0 0.00 0.00 0.00 62 1015.0
20260906152507 32 79 3.2 8.0 0.00 0.00 0.00 63 1015.0
20260906152007 31 148 1.6 8.0 0.00 0.00 0.00 65 1014.9
20260906151520 31 24 1.6 8.0 0.00 0.00 0.00 65 1014.8
20260906151017 31 50 1.6 6.4 0.00 0.00 0.00 66 1014.8
20260906150513 31 40 1.6 9.7 0.00 0.00 0.00 66 1014.8
20260906150031 31 37 3.2 9.7 0.00 0.00 0.00 67 1014.8
20260906145514 31 103 1.6 6.4 0.00 0.00 0.00 67 1014.8
20260906145019 30 103 1.6 4.8 0.00 0.00 0.00 68 1014.8
20260906144529 30 88 3.2 4.8 0.00 0.00 0.00 69 1014.8
20260906144013 30 112 3.2 4.8 0.00 0.00 0.00 68 1014.8
20260906143514 30 110 1.6 4.8 0.00 0.00 0.00 69 1014.9
20260906143019 30 118 1.6 4.8 0.00 0.00 0.00 70 1014.9
20260906142508 30 79 3.2 4.8 0.00 0.00 0.00 70 1014.9
20260906142008 30 122 0.0 4.8 0.00 0.00 0.00 70 1014.9
20260906141524 30 102 0.0 4.8 0.00 0.00 0.00 71 1014.9
20260906141011 29 92 0.0 4.8 0.00 0.00 0.00 72 1014.9
20260906140512 29 53 1.6 4.8 0.00 0.00 0.00 72 1014.8
20260906140027 28 110 1.6 3.2 0.00 0.00 0.00 74 1014.7
20260906135514 28 67 1.6 3.2 0.00 0.00 0.00 75 1014.7
20260906135011 28 34 1.6 3.2 0.00 0.00 0.00 75 1014.7
20260906134531 28 49 0.0 4.8 0.00 0.00 0.00 76 1014.7
20260906134018 28 38 1.6 4.8 0.00 0.00 0.00 76 1014.7
20260906133514 28 122 1.6 3.2 0.00 0.00 0.00 77 1014.7
20260906133034 27 86 1.6 3.2 0.00 0.00 0.00 78 1014.7
20260906132518 27 126 1.6 3.2 0.00 0.00 0.00 79 1014.7
20260906132007 27 24 1.6 3.2 0.00 0.00 0.00 80 1014.7
20260906131517 26 331 0.0 3.2 0.00 0.00 0.00 81 1014.8
20260906131009 26 253 0.0 3.2 0.00 0.00 0.00 82 1014.7
20260906130511 26 253 0.0 3.2 0.00 0.00 0.00 83 1014.8
20260906130024 25 253 0.0 3.2 0.00 0.00 0.00 84 1014.7
20260906125512 25 253 0.0 3.2 0.00 0.00 0.00 85 1014.6
20260906125013 25 253 0.0 3.2 0.00 0.00 0.00 86 1014.6
20260906124529 25 253 0.0 3.2 0.00 0.00 0.00 86 1014.5
20260906124014 25 253 0.0 3.2 0.00 0.00 0.00 86 1014.5
20260906123515 25 253 0.0 3.2 0.00 0.00 0.00 86 1014.4
20260906123033 25 253 0.0 0.0 0.00 0.00 0.00 86 1014.3
20260906122518 25 253 0.0 3.2 0.00 0.00 0.00 86 1014.3
20260906122016 25 253 0.0 3.2 0.00 0.00 0.00 86 1014.3
20260906121532 25 253 0.0 3.2 0.00 0.00 0.00 86 1014.3
20260906121007 25 253 0.0 0.0 0.00 0.00 0.00 86 1014.2
20260906120507 25 253 0.0 0.0 0.00 0.00 0.00 85 1014.1
20260906120022 25 253 0.0 0.0 0.00 0.00 0.00 85 1014.0
20260906115513 25 253 0.0 0.0 0.00 0.00 0.00 85 1014.1
20260906115011 25 253 0.0 0.0 0.00 0.00 0.00 85 1014.1
20260906114542 25 253 0.0 0.0 0.00 0.00 0.00 85 1014.0
20260906114013 25 253 0.0 0.0 0.00 0.00 0.00 85 1013.9
20260906113513 25 253 0.0 3.2 0.00 0.00 0.00 85 1013.9
20260906113032 25 253 0.0 3.2 0.00 0.00 0.00 85 1013.9
20260906112513 25 253 0.0 3.2 0.00 0.00 0.00 85 1013.8
20260906112020 25 253 0.0 3.2 0.00 0.00 0.00 85 1013.8
20260906111535 25 253 0.0 3.2 0.00 0.00 0.00 84 1013.8
20260906111017 25 253 0.0 3.2 0.00 0.00 0.00 85 1013.9
20260906110515 25 253 0.0 3.2 0.00 0.00 0.00 85 1013.8
20260906110036 25 253 0.0 3.2 0.00 0.00 0.00 85 1013.7
20260906105511 25 253 0.0 3.2 0.00 0.00 0.00 84 1013.7
20260906105012 25 253 0.0 3.2 0.00 0.00 0.00 84 1013.5
20260906104534 25 253 0.0 3.2 0.00 0.00 0.00 84 1013.5
20260906104003 25 253 0.0 3.2 0.00 0.00 0.00 84 1013.6
20260906103502 25 253 0.0 3.2 0.00 0.00 0.00 84 1013.6
20260906103008 25 253 0.0 0.0 0.00 0.00 0.00 84 1013.6
20260906102505 25 253 0.0 0.0 0.00 0.00 0.00 83 1013.6
20260906102002 25 253 0.0 0.0 0.00 0.00 0.00 83 1013.5
20260906101513 25 253 0.0 0.0 0.00 0.00 0.00 83 1013.5
20260906101005 25 253 0.0 0.0 0.00 0.00 0.00 83 1013.4
20260906100508 25 253 0.0 0.0 0.00 0.00 0.00 83 1013.4
20260906100018 25 253 0.0 0.0 0.00 0.00 0.00 82 1013.4
20260906095508 25 253 0.0 0.0 0.00 0.00 0.00 81 1013.4
20260906095008 26 253 0.0 0.0 0.00 0.00 0.00 81 1013.4
20260906094550 26 253 0.0 0.0 0.00 0.00 0.00 81 1013.3
20260906094009 26 253 0.0 0.0 0.00 0.00 0.00 80 1013.2
20260906093512 26 253 0.0 0.0 0.00 0.00 0.00 79 1013.1
20260906093011 26 253 0.0 0.0 0.00 0.00 0.00 79 1013.1
20260906092504 26 253 0.0 1.6 0.00 0.00 0.00 79 1013.0
20260906092004 26 253 0.0 1.6 0.00 0.00 0.00 79 1013.0
20260906091510 26 253 0.0 3.2 0.00 0.00 0.00 78 1013.0
20260906091004 26 253 0.0 3.2 0.00 0.00 0.00 78 1012.9
20260906090507 26 253 0.0 3.2 0.00 0.00 0.00 78 1012.9
20260906090024 26 205 0.0 3.2 0.00 0.00 0.00 78 1012.9
20260906085506 26 210 0.0 4.8 0.00 0.00 0.00 78 1012.9
20260906085006 26 211 0.0 4.8 0.00 0.00 0.00 78 1012.9
20260906084524 26 215 0.0 4.8 0.00 0.00 0.00 77 1012.9
20260906084011 26 228 0.0 4.8 0.00 0.00 0.00 77 1012.8
20260906083512 27 204 0.0 4.8 0.00 0.00 0.00 77 1012.8
20260906083042 27 94 1.6 4.8 0.00 0.00 0.00 77 1012.8
20260906082512 27 175 0.0 3.2 0.00 0.00 0.00 76 1012.8
20260906082004 27 113 0.0 3.2 0.00 0.00 0.00 76 1012.9
20260906081511 27 173 0.0 3.2 0.00 0.00 0.00 76 1012.8
20260906081003 27 190 0.0 3.2 0.00 0.00 0.00 76 1012.8
20260906080505 27 222 0.0 3.2 0.00 0.00 0.00 75 1012.8
20260906080013 27 202 0.0 3.2 0.00 0.00 0.00 75 1012.9
20260906075507 27 205 0.0 3.2 0.00 0.00 0.00 75 1013.0
20260906075007 27 186 0.0 3.2 0.00 0.00 0.00 74 1013.0
20260906074526 27 173 0.0 3.2 0.00 0.00 0.00 74 1013.1
20260906074012 27 200 0.0 3.2 0.00 0.00 0.00 73 1012.9
20260906073508 27 200 0.0 6.4 0.00 0.00 0.00 73 1013.0
20260906073027 27 202 0.0 6.4 0.00 0.00 0.00 73 1012.9
20260906072512 27 206 0.0 3.2 0.00 0.00 0.00 73 1012.9
20260906072015 27 221 1.6 3.2 0.00 0.00 0.00 73 1012.8
20260906071529 27 231 0.0 3.2 0.00 0.00 0.00 72 1012.9
20260906071004 27 242 0.0 3.2 0.00 0.00 0.00 72 1013.0
20260906070503 27 244 0.0 3.2 0.00 0.00 0.00 72 1013.1
20260906070010 27 201 1.6 4.8 0.00 0.00 0.00 72 1013.2
20260906065505 28 180 0.0 4.8 0.00 0.00 0.00 71 1013.2
20260906065008 28 244 1.6 4.8 0.00 0.00 0.00 71 1013.2
20260906064516 28 186 1.6 4.8 0.00 0.00 0.00 70 1013.2
20260906064008 28 189 1.6 3.2 0.00 0.00 0.00 70 1013.3
20260906063509 28 201 0.0 4.8 0.00 0.00 0.00 69 1013.3
20260906063024 28 238 1.6 6.4 0.00 0.00 0.00 69 1013.2
20260906062514 28 167 1.6 6.4 0.00 0.00 0.00 69 1013.2
20260906062011 28 213 1.6 9.7 0.00 0.00 0.00 68 1013.2
20260906061532 28 161 1.6 9.7 0.00 0.00 0.00 68 1013.2
20260906061015 28 182 0.0 3.2 0.00 0.00 0.00 67 1013.3
20260906060519 28 217 0.0 3.2 0.00 0.00 0.00 67 1013.3
20260906060031 28 220 1.6 3.2 0.00 0.00 0.00 66 1013.3
20260906055504 28 178 1.6 3.2 0.00 0.00 0.00 66 1013.2
20260906055004 28 227 1.6 3.2 0.00 0.00 0.00 66 1013.1
20260906054515 28 190 0.0 3.2 0.00 0.00 0.00 65 1013.2
20260906054007 28 225 0.0 4.8 0.00 0.00 0.00 65 1013.3
20260906053508 28 146 0.0 4.8 0.00 0.00 0.00 64 1013.3
20260906053023 28 252 1.6 6.4 0.00 0.00 0.00 64 1013.2
20260906052512 28 202 1.6 6.4 0.00 0.00 0.00 64 1013.2
20260906052011 29 235 1.6 4.8 0.00 0.00 0.00 64 1013.1
20260906051526 29 238 1.6 4.8 0.00 0.00 0.00 63 1013.0
20260906051014 29 240 3.2 6.4 0.00 0.00 0.00 63 1013.1
20260906050515 29 200 1.6 8.0 0.00 0.00 0.00 63 1013.2
20260906050034 29 247 3.2 8.0 0.00 0.00 0.00 63 1013.2
20260906045518 29 232 1.6 8.0 0.00 0.00 0.00 64 1013.1
20260906045015 29 210 0.0 9.7 0.00 0.00 0.00 63 1013.2
20260906044512 29 164 1.6 11.3 0.00 0.00 0.00 63 1013.2
20260906044003 29 242 3.2 11.3 0.00 0.00 0.00 63 1013.2
20260906043506 29 32 1.6 8.0 0.00 0.00 0.00 64 1013.3
20260906043020 29 190 1.6 4.8 0.00 0.00 0.00 64 1013.2
20260906042510 29 210 1.6 4.8 0.00 0.00 0.00 64 1013.3
20260906042009 29 264 0.0 8.0 0.00 0.00 0.00 63 1013.2
20260906041531 29 190 1.6 8.0 0.00 0.00 0.00 63 1013.3
20260906041012 30 189 0.0 6.4 0.00 0.00 0.00 63 1013.2
20260906040514 30 150 0.0 6.4 0.00 0.00 0.00 63 1013.2
20260906040034 30 226 0.0 6.4 0.00 0.00 0.00 63 1013.2
20260906035511 30 244 0.0 4.8 0.00 0.00 0.00 63 1013.2
20260906035018 30 143 1.6 6.4 0.00 0.00 0.00 63 1013.3
20260906034532 30 118 1.6 9.7 0.00 0.00 0.00 63 1013.2
20260906034015 30 186 1.6 9.7 0.00 0.00 0.00 63 1013.2
20260906033506 30 157 1.6 3.2 0.00 0.00 0.00 63 1013.2
20260906033014 30 191 0.0 6.4 0.00 0.00 0.00 62 1013.2
20260906032507 30 196 1.6 11.3 0.00 0.00 0.00 62 1013.3
20260906032007 30 153 1.6 11.3 0.00 0.00 0.00 62 1013.2
20260906031534 30 258 1.6 6.4 0.00 0.00 0.00 61 1013.4
20260906031011 30 150 3.2 8.0 0.00 0.00 0.00 61 1013.3
20260906030510 30 71 1.6 9.7 0.00 0.00 0.00 61 1013.2
20260906030028 30 170 1.6 11.3 0.00 0.00 0.00 60 1013.2
20260906025514 30 225 0.0 11.3 0.00 0.00 0.00 60 1013.3
20260906025017 30 188 1.6 9.7 0.00 0.00 0.00 60 1013.2
20260906024544 30 67 1.6 9.7 0.00 0.00 0.00 60 1013.1
20260906024014 30 183 1.6 6.4 0.00 0.00 0.00 59 1013.1
20260906023516 30 142 1.6 6.4 0.00 0.00 0.00 59 1013.0
20260906023032 30 98 1.6 6.4 0.00 0.00 0.00 59 1012.9
20260906022520 30 122 1.6 6.4 0.00 0.00 0.00 59 1012.9
20260906022006 30 111 1.6 8.0 0.00 0.00 0.00 59 1012.8
20260906021520 30 224 1.6 8.0 0.00 0.00 0.00 59 1012.7
20260906021008 30 212 3.2 8.0 0.00 0.00 0.00 58 1012.7
20260906020510 31 205 0.0 4.8 0.00 0.00 0.00 58 1012.5
20260906020027 31 246 1.6 4.8 0.00 0.00 0.00 58 1012.5
20260906015511 31 117 0.0 11.3 0.00 0.00 0.00 57 1012.4
20260906015015 31 53 1.6 11.3 0.00 0.00 0.00 57 1012.5
20260906014544 31 237 1.6 9.7 0.00 0.00 0.00 57 1012.4
20260906014012 31 155 1.6 11.3 0.00 0.00 0.00 56 1012.4
20260906013514 31 159 1.6 11.3 0.00 0.00 0.00 56 1012.3
20260906013042 31 107 1.6 11.3 0.00 0.00 0.00 55 1012.2
20260906012519 32 131 3.2 12.9 0.00 0.00 0.00 54 1012.2
20260906012018 32 127 3.2 12.9 0.00 0.00 0.00 53 1012.0
20260906011532 32 119 1.6 14.5 0.00 0.00 0.00 52 1012.0
20260906011007 33 189 3.2 14.5 0.00 0.00 0.00 51 1011.8
20260906010510 33 123 3.2 11.3 0.00 0.00 0.00 50 1011.7
20260906010027 33 132 3.2 11.3 0.00 0.00 0.00 50 1011.7
20260906005511 33 132 3.2 11.3 0.00 0.00 0.00 49 1011.7
20260906005011 34 128 3.2 12.9 0.00 0.00 0.00 48 1011.5
20260906004526 34 92 3.2 12.9 0.00 0.00 0.00 47 1011.5
20260906004013 35 125 3.2 6.4 0.00 0.00 0.00 45 1011.5
20260906003515 35 124 3.2 6.4 0.00 0.00 0.00 44 1011.4
20260906003031 35 122 0.0 12.9 0.00 0.00 0.00 44 1011.4
20260906002514 35 97 1.6 12.9 0.00 0.00 0.00 43 1011.4
20260906002016 35 61 1.6 6.4 0.00 0.00 0.00 43 1011.5
20260906001534 35 138 3.2 12.9 0.00 0.00 0.00 42 1011.4
20260906001016 35 111 1.6 12.9 0.00 0.00 0.00 42 1011.5
20260906000516 35 140 3.2 11.3 0.00 0.00 0.00 42 1011.4
20260906000018 35 131 0.0 6.4 0.00 0.00 0.00 42 1011.4
20260905235514 35 121 1.6 6.4 0.00 0.00 0.00 41 1011.3
20260905235012 36 115 1.6 6.4 0.00 0.00 0.00 40 1011.3
20260905234526 36 131 1.6 6.4 0.00 0.00 0.00 41 1011.2
20260905234010 36 145 3.2 14.5 0.00 0.00 0.00 41 1011.2
20260905233518 36 113 3.2 12.9 0.00 0.00 0.00 40 1011.2
20260905233028 36 121 1.6 12.9 0.00 0.00 0.00 40 1011.2
20260905232516 36 125 3.2 12.9 0.00 0.00 0.00 40 1011.2
20260905232014 36 141 3.2 12.9 0.00 0.00 0.00 40 1011.2
20260905231534 36 105 3.2 11.3 0.00 0.00 0.00 39 1011.3